Fort Riley, KS

12:33 AM CDT on August 26, 2016 (GMT -0500)
Marshall Army Air Field

Weather History for KFRI - February, 2014

Change the Weather History Date:

Tuesday, February 18, 2014

  Actual Average (KMHK) Record (KMHK)
Temperature  
Mean Temperature 56 °F 34 °F  
Max Temperature 70 °F 46 °F 78 °F (2016)
Min Temperature 35 °F 21 °F 1 °F (2006)
Degree Days  
Heating Degree Days 10 31  
Month to date heating degree days 599  
Since 1 July heating degree days 3865  
Cooling Degree Days 0 0  
Month to date cooling degree days 0  
Year to date cooling degree days 0  
Growing Degree Days 6 (Base 50)    
Moisture  
Dew Point 27 °F    
Average Humidity 39    
Maximum Humidity 71    
Minimum Humidity 16    
Precipitation  
Precipitation 0.00 in 0.05 in 0.03 in (1997)
Month to date precipitation 0.66  
Year to date precipitation 1.31  
Sea Level Pressure  
Sea Level Pressure 29.82 in    
Wind  
Wind Speed 14 mph (SW)    
Max Wind Speed 23 mph    
Max Gust Speed 31 mph    
Visibility 10 miles    
Events      
T = Trace of Precipitation, MM = Missing Value Source: NWS Daily Summary

Daily Weather History Graph

Daily Weather History Graph

Search for Another Location

Airport or City:

Trip Planner

Search our weather history database for the weather conditions in past years. The results will help you decide how hot, cold, wet, or windy it might be!

Date:

Astronomy

Feb. 18, 2014 Rise Set
Actual Time 7:14 AM CST 6:07 PM CST
Civil Twilight 6:47 AM CST 6:35 PM CST
Nautical Twilight 6:16 AM CST 7:06 PM CST
Astronomical Twilight 5:45 AM CST 7:37 PM CST
Moon 10:00 PM CST (2/18) 8:49 AM CST (2/18)
Length of Visible Light 11h 47m
Length of Day
10h 53m
Waning Gibbous, 87% of the Moon is Illuminated
Feb 18
Waning Gibbous
Feb 22
Last Quarter
Mar 1
New
Mar 8
First Quarter
Mar 16
Full

Hourly Weather History & Observations

Time (CST) Temp. Windchill Dew Point Humidity Pressure Visibility Wind Dir Wind Speed Gust Speed Precip Events Conditions
12:58 AM 45.7 °F 38.8 °F 24.6 °F 44% 29.92 in 10.0 mi SSW 16.1 mph - N/A   Clear
1:58 AM 47.1 °F - 24.8 °F 42% 29.88 in 10.0 mi SSW 23.0 mph 31.1 mph N/A   Clear
2:58 AM 45.3 °F 38.4 °F 25.3 °F 46% 29.86 in 10.0 mi SSW 16.1 mph - N/A   Clear
3:58 AM 44.8 °F 37.4 °F 25.3 °F 47% 29.83 in 10.0 mi SSW 17.3 mph - N/A   Clear
4:58 AM 45.7 °F 38.8 °F 25.2 °F 45% 29.79 in 10.0 mi South 16.1 mph 26.5 mph N/A   Clear
5:58 AM 45.9 °F 40.0 °F 25.3 °F 45% 29.79 in 10.0 mi SW 12.7 mph - N/A   Clear
6:58 AM 44.6 °F 38.8 °F 26.4 °F 49% 29.78 in 10.0 mi SW 11.5 mph - N/A   Clear
7:58 AM 41.2 °F 36.0 °F 26.8 °F 57% 29.80 in 10.0 mi SW 8.1 mph - N/A   Clear
8:58 AM 47.5 °F - 27.0 °F 45% 29.79 in 10.0 mi SSW 13.8 mph - N/A   Clear
9:58 AM 53.4 °F - 27.3 °F 37% 29.76 in 10.0 mi SW 18.4 mph 26.5 mph N/A   Clear
10:58 AM 57.0 °F - 27.9 °F 33% 29.76 in 10.0 mi SW 16.1 mph 27.6 mph N/A   Partly Cloudy
11:58 AM 60.3 °F - 28.2 °F 30% 29.75 in 10.0 mi SW 18.4 mph - N/A   Clear
12:58 PM 62.6 °F - 30.6 °F 30% 29.73 in 10.0 mi WSW 13.8 mph - N/A   Clear
1:58 PM 65.7 °F - 31.3 °F 28% 29.72 in 10.0 mi SW 17.3 mph - N/A   Clear
2:58 PM 68.5 °F - 30.6 °F 24% 29.71 in 10.0 mi WSW 11.5 mph - N/A   Clear
3:58 PM 70.3 °F - 27.9 °F 21% 29.72 in 10.0 mi WSW 8.1 mph - N/A   Clear
4:58 PM 69.8 °F - 21.2 °F 16% 29.74 in 10.0 mi West 13.8 mph 21.9 mph N/A   Clear
5:58 PM 64.6 °F - 21.9 °F 20% 29.78 in 10.0 mi WNW 10.4 mph 17.3 mph N/A   Clear
6:58 PM 60.6 °F - 24.8 °F 25% 29.85 in 10.0 mi NW 13.8 mph 19.6 mph N/A   Clear
7:58 PM 56.3 °F - 25.5 °F 31% 29.91 in 10.0 mi NNW 10.4 mph - N/A   Clear
8:58 PM 50.4 °F - 27.5 °F 41% 29.94 in 10.0 mi North 5.8 mph - N/A   Clear
9:58 PM 42.4 °F 39.6 °F 27.5 °F 56% 29.96 in 10.0 mi NE 4.6 mph - N/A   Clear
10:58 PM 41.0 °F - 28.0 °F 60% 29.99 in 10.0 mi Calm Calm - N/A   Clear
11:58 PM 35.6 °F 31.7 °F 27.0 °F 71% 30.01 in 10.0 mi SW 4.6 mph - N/A   Clear